Regional Weather Roundup
Issued by NWS

Home | Current Version | Previous Version | Graphics & Text | Print | Product List | Glossary On
Versions: 1 2 3 4 5 6 7 8 9 10 11 12 13 14 15 16 17 18 19 20 21 22 23 24 25 26 27 28 29 30 31 32 33 34 35 36 37 38 39 40 41 42 43 44 45 46 47 48 49 50
000
ASUS43 KTOP 291959
RWRKS

WEATHER ROUNDUP FOR KANSAS
NATIONAL WEATHER SERVICE GOODLAND KS
300 PM CDT WED MAR 29 2017

NOTE:  "FAIR" INDICATES FEW OR NO CLOUDS BELOW 12,000 FEET WITH NO
SIGNIFICANT WEATHER AND/OR OBSTRUCTIONS TO VISIBILITY.

KSZ001>006-013>018-027>032-041>047-292100-
NORTHWEST KANSAS

CITY           SKY/WX    TMP DP  RH WIND       PRES   REMARKS
GOODLAND       CLOUDY    42  39  89 N22G30    29.92F
HAYS             N/A     44  41  89 N24G35    29.77F FOG
HILL CITY      LGT RAIN  44  41  89 N26G35    29.87S FOG
RUSSELL        LGT RAIN  44  42  93 N26G39    29.73S
$$

KSZ061>065-074>080-084>089-292100-
SOUTHWEST KANSAS

CITY           SKY/WX    TMP DP  RH WIND       PRES   REMARKS
DODGE CITY     LGT RAIN  43  41  93 N30G38    29.78S FOG
ELKHART          N/A     42  33  70 N17         N/A
GARDEN CITY    RAIN      41  38  89 N28G36    29.85S
GREAT BEND     LGT RAIN  46  44  93 N30G39    29.69F
LIBERAL        CLOUDY    43  37  81 N24G32    29.87S
$$

KSZ066>073-081>083-090>101-292100-
SOUTHEAST KANSAS

CITY           SKY/WX    TMP DP  RH WIND       PRES   REMARKS
CHANUTE        PTSUNNY   72  59  63 S16G24    29.62S
COFFEYVILLE    CLOUDY    69  56  62 SW16G26   29.63S
MEDICINE LODGE   N/A     48  45  89 N20G36    29.58F
NEWTON         CLOUDY    55  54  94 VRB7      29.61S
PARSONS        PTSUNNY   70  56  61 S14G25    29.63F
WICHITA INTL   CLOUDY    59  54  83 S18       29.58F
WICHITA JABRA  PTSUNNY   61  54  77 S18G25    29.59F
WICHITA MCCONL PTSUNNY   61  54  77 S20G25    29.59F
WINFIELD       CLOUDY    62  54  74 S15G25    29.62F
$$

KSZ007>012-019>026-033>040-048>060-102>105-292100-
NORTHEAST KANSAS

CITY           SKY/WX    TMP DP  RH WIND       PRES   REMARKS
CONCORDIA      LGT RAIN  44  43  96 NE20G35   29.75F FOG
EMPORIA        PTSUNNY   66  59  78 S15       29.60F
LAWRENCE       CLOUDY    58  55  90 NE17      29.66F
MANHATTAN      CLOUDY    50  50 100 NE13      29.67F
OLATHE IND     CLOUDY    61  56  83 E13G22    29.66F
OLATHE EXE     CLOUDY    60  57  89 E14       29.67F
SALINA         LGT RAIN  48  45  89 N22G31    29.67F FOG
TOPEKA BILLARD CLOUDY    57  56  96 E18       29.65F
TOPEKA FORBES  CLOUDY    58  56  93 E7        29.64F
$$




USA.gov is the U.S. government's official web portal to all federal, state and local government web resources and services.